Location: Camp at the Woods
(43.2055°N, 93.0905°W)
Time: 06:22:16
(UTC+00:00)

BlueWalker 3 - Pass Details

Date: 22 April 2024
Orbit: 481 x 494 km, 53.2° (Epoch: 25 May)

Event Time Altitude Azimuth Distance (km) Brightness Sun altitude
Rises 04:57:08 0° 303° (WNW) 2,582 6.3 -31.9°
Reaches altitude 10° 04:59:45 10° 321° (NW) 1,700 5.4 -32.1°
Enters shadow 05:01:20 17° 343° (NNW) 1,322 4.8 -32.2°
